Location: RyutenAO
(34.8939°N, 134.0022°E)
Time: 13:01:33
(UTC+09:00)

ITAMSAT 1 - Visible Passes

Search period start: 29 March 2023 00:00
Search period end: 08 April 2023 00:00
Orbit: 784 x 795 km, 98.8° (Epoch: 28 March)

Date Brightness Start Highest point End Pass type
(mag) Time Alt. Az. Time Alt. Az. Time Alt. Az.
29 Mar 8.5 18:59:59 10° SE 19:04:28 30° ENE 19:08:59 10° N visible
29 Mar 9.5 20:39:27 10° SSW 20:43:50 27° W 20:48:13 10° NW visible
30 Mar 8.3 20:08:59 10° S 20:14:03 55° W 20:19:10 10° NNW visible
31 Mar 7.6 19:39:14 10° SSE 19:44:24 75° ENE 19:49:37 10° N visible
31 Mar 10.6 21:23:41 10° W 21:24:19 10° W 21:24:57 10° W visible
01 Apr 8.2 19:10:07 10° SE 19:14:53 38° ENE 19:19:40 10° N visible
01 Apr 9.8 20:50:26 10° SW 20:54:22 22° W 20:58:21 10° NW visible
02 Apr 8.7 20:19:38 10° S 20:24:34 43° W 20:29:32 10° NNW visible
03 Apr 7.6 19:49:40 10° SSE 19:54:52 87° WSW 20:00:07 10° NNW visible
04 Apr 7.9 19:20:20 10° SE 19:25:18 48° ENE 19:30:18 10° N visible
04 Apr 10.1 21:01:35 10° SW 21:04:56 17° W 21:08:19 10° NW visible
05 Apr 8.8 18:51:42 10° ESE 18:55:52 25° ENE 19:00:02 10° NNE visible
05 Apr 9.1 20:30:24 10° SSW 20:35:05 34° W 20:39:49 10° NNW visible
06 Apr 7.9 20:00:11 10° S 20:05:21 69° WSW 20:10:34 10° NNW visible
07 Apr 7.7 19:30:38 10° SSE 19:35:44 60° ENE 19:40:53 10° N visible
07 Apr 10.3 21:13:02 10° WSW 21:15:30 13° W 21:17:59 10° WNW visible
